Location: Voyageurs National Park
(48.5020°N, 92.9292°W)
Time: 00:54:34
(UTC-05:00)

PCSat - Visible Passes

Search period start: 23 October 2014 00:00
Search period end: 02 November 2014 00:00
Orbit: 786 x 796 km, 67.1° (Epoch: 21 October)

Date Brightness Start Highest point End Pass type
(mag) Time Alt. Az. Time Alt. Az. Time Alt. Az.
23 Oct 11.4 04:11:47 25° ESE 04:11:58 25° ESE 04:16:19 10° NE visible
23 Oct 9.6 05:52:34 32° WSW 05:54:59 62° NW 06:00:24 10° NNE visible
24 Oct 11.9 03:42:41 18° E 03:42:41 18° E 03:45:16 10° ENE visible
24 Oct 9.4 05:23:28 62° WSW 05:24:21 79° NW 05:29:50 10° NNE visible
24 Oct 11.0 07:04:32 10° W 07:08:39 21° NNW 07:12:47 10° NNE visible
25 Oct 12.4 03:13:29 11° ENE 03:13:29 11° ENE 03:13:53 10° ENE visible
25 Oct 9.7 04:54:15 73° ENE 04:54:15 73° ENE 04:59:13 10° NE visible
25 Oct 10.7 06:35:01 17° WNW 06:37:49 25° NW 06:42:18 10° NNE visible
26 Oct 10.7 04:24:56 41° ENE 04:24:56 41° ENE 04:28:35 10° NE visible
26 Oct 10.5 06:05:42 27° WNW 06:07:01 30° NW 06:11:48 10° NNE visible
27 Oct 11.6 03:55:33 25° NE 03:55:33 25° NE 03:57:53 10° NE visible
27 Oct 10.2 05:36:18 37° NW 05:36:18 37° NW 05:41:18 10° NNE visible
27 Oct 11.5 07:18:35 10° NW 07:21:19 14° NNW 07:24:02 10° N visible
28 Oct 12.2 03:26:06 15° NE 03:26:06 15° NE 03:27:07 10° NE visible
28 Oct 10.4 05:06:51 38° N 05:06:51 38° N 05:10:47 10° NNE visible
28 Oct 11.4 06:47:36 11° NW 06:50:22 15° NNW 06:53:33 10° NNE visible
29 Oct 11.0 04:37:21 31° NNE 04:37:21 31° NNE 04:40:14 10° NNE visible
29 Oct 11.2 06:18:06 16° NW 06:19:27 18° NNW 06:23:04 10° NNE visible
30 Oct 11.6 04:07:48 22° NNE 04:07:48 22° NNE 04:09:40 10° NNE visible
30 Oct 11.1 05:48:32 21° NNW 05:48:34 21° NNW 05:52:35 10° NNE visible
31 Oct 12.2 03:38:12 15° NE 03:38:12 15° NE 03:39:04 10° NE visible
31 Oct 11.2 05:18:57 22° NNW 05:18:57 22° NNW 05:22:06 10° NNE visible
31 Oct 11.7 07:01:32 10° NNW 07:03:13 11° N 07:04:53 10° N visible
01 Nov 11.4 04:49:19 21° N 04:49:19 21° N 04:51:36 10° NNE visible
01 Nov 11.7 06:30:05 10° NW 06:32:13 12° NNW 06:34:20 10° N visible
